TimeMDT,TemperatureF,Dew PointF,Humidity,Sea Level PressureIn,VisibilityMPH,Wind Direction,Wind SpeedMPH,Gust SpeedMPH,PrecipitationIn,Events,Conditions,WindDirDegrees,DateUTC
12:15 AM,44.6,30.2,57,29.74,10.0,Calm,Calm,-,N/A,,Clear,0,2014-05-06 06:15:00
12:35 AM,44.6,30.2,57,29.74,10.0,Calm,Calm,-,N/A,,Clear,0,2014-05-06 06:35:00
12:55 AM,42.8,30.2,61,29.73,10.0,East,5.8,-,N/A,,Clear,80,2014-05-06 06:55:00
1:15 AM,41.0,28.4,61,29.73,10.0,ESE,5.8,-,N/A,,Clear,110,2014-05-06 07:15:00
5:55 AM,33.8,28.4,81,29.66,10.0,East,4.6,-,N/A,,Clear,100,2014-05-06 11:55:00
6:15 AM,32.0,28.4,87,29.66,10.0,East,5.8,-,N/A,,Clear,100,2014-05-06 12:15:00
6:35 AM,33.8,28.4,81,29.66,10.0,Calm,Calm,-,N/A,,Clear,0,2014-05-06 12:35:00
6:55 AM,33.8,28.4,81,29.66,10.0,Calm,Calm,-,N/A,,Clear,0,2014-05-06 12:55:00
7:15 AM,37.4,30.2,75,29.66,10.0,Calm,Calm,-,N/A,,Clear,0,2014-05-06 13:15:00
7:55 AM,42.8,32.0,66,29.66,10.0,Calm,Calm,-,N/A,,Clear,0,2014-05-06 13:55:00
8:15 AM,44.6,30.2,57,29.65,10.0,Calm,Calm,-,N/A,,Clear,0,2014-05-06 14:15:00
8:35 AM,46.4,30.2,53,29.65,10.0,Calm,Calm,-,N/A,,Clear,0,2014-05-06 14:35:00
8:55 AM,51.8,30.2,44,29.64,10.0,Calm,Calm,-,N/A,,Clear,0,2014-05-06 14:55:00
9:15 AM,53.6,30.2,41,29.64,10.0,Calm,Calm,-,N/A,,Clear,0,2014-05-06 15:15:00
9:35 AM,59.0,24.8,27,29.63,10.0,WSW,6.9,-,N/A,,Scattered Clouds,240,2014-05-06 15:35:00
9:55 AM,60.8,23.0,23,29.62,10.0,WSW,15.0,18.4,N/A,,Scattered Clouds,240,2014-05-06 15:55:00
10:15 AM,62.6,21.2,20,29.62,10.0,SW,16.1,-,N/A,,Mostly Cloudy,230,2014-05-06 16:15:00
10:35 AM,62.6,21.2,20,29.61,10.0,SW,16.1,23.0,N/A,,Mostly Cloudy,230,2014-05-06 16:35:00
10:55 AM,60.8,21.2,22,29.61,10.0,SW,17.3,24.2,N/A,,Mostly Cloudy,230,2014-05-06 16:55:00
11:15 AM,59.0,21.2,23,29.61,10.0,SW,17.3,25.3,N/A,,Overcast,230,2014-05-06 17:15:00
11:35 AM,60.8,21.2,22,29.61,10.0,SW,17.3,25.3,N/A,,Overcast,230,2014-05-06 17:35:00
11:55 AM,59.0,21.2,23,29.61,10.0,WSW,21.9,29.9,N/A,,Overcast,240,2014-05-06 17:55:00
12:15 PM,59.0,26.6,29,29.62,10.0,WSW,17.3,33.4,N/A,,Overcast,240,2014-05-06 18:15:00
12:35 PM,60.8,23.0,23,29.60,10.0,WSW,9.2,18.4,N/A,,Mostly Cloudy,250,2014-05-06 18:35:00
12:55 PM,60.8,23.0,23,29.60,10.0,SSW,4.6,-,N/A,,Overcast,210,2014-05-06 18:55:00
1:15 PM,59.0,26.6,29,29.60,10.0,SW,20.7,31.1,N/A,,Overcast,230,2014-05-06 19:15:00
1:35 PM,59.0,28.4,31,29.61,10.0,West,15.0,18.4,N/A,,Overcast,260,2014-05-06 19:35:00
2:15 PM,57.2,28.4,33,29.61,10.0,East,5.8,32.2,N/A,Rain,Light Rain,90,2014-05-06 20:15:00
2:35 PM,59.0,30.2,34,29.61,10.0,SW,10.4,16.1,N/A,,Overcast,230,2014-05-06 20:35:00
2:55 PM,59.0,28.4,31,29.61,10.0,Calm,Calm,-,N/A,,Mostly Cloudy,0,2014-05-06 20:55:00
3:15 PM,57.2,28.4,33,29.60,10.0,North,8.1,-,N/A,,Mostly Cloudy,350,2014-05-06 21:15:00
3:35 PM,57.2,28.4,33,29.59,10.0,East,4.6,-,N/A,,Overcast,90,2014-05-06 21:35:00
3:55 PM,51.8,32.0,47,29.62,10.0,ESE,18.4,27.6,N/A,,Overcast,110,2014-05-06 21:55:00
4:15 PM,51.8,32.0,47,29.64,10.0,North,8.1,-,N/A,Rain,Rain,10,2014-05-06 22:15:00
4:35 PM,50.0,37.4,62,29.63,10.0,East,11.5,20.7,N/A,,Overcast,100,2014-05-06 22:35:00
4:55 PM,50.0,37.4,62,29.63,10.0,East,9.2,-,N/A,,Light Drizzle,100,2014-05-06 22:55:00
5:15 PM,50.0,37.4,62,29.65,10.0,East,11.5,-,N/A,Thunderstorm,Overcast,100,2014-05-06 23:15:00
5:35 PM,53.6,35.6,51,29.64,10.0,ENE,8.1,-,N/A,Rain,Light Rain,70,2014-05-06 23:35:00
5:55 PM,55.4,33.8,44,29.65,10.0,East,10.4,-,N/A,,Mostly Cloudy,100,2014-05-06 23:55:00
6:15 PM,51.8,33.8,50,29.65,10.0,ESE,5.8,-,N/A,,Mostly Cloudy,120,2014-05-07 00:15:00
6:35 PM,50.0,35.6,58,29.65,10.0,ESE,18.4,23.0,N/A,,Overcast,120,2014-05-07 00:35:00
6:55 PM,46.4,37.4,71,29.67,10.0,SE,11.5,-,N/A,Rain-Thunderstorm,Light Thunderstorms and Rain,130,2014-05-07 00:55:00
7:15 PM,42.8,37.4,81,29.70,2.0,South,11.5,23.0,N/A,Rain,Light Rain,180,2014-05-07 01:15:00
7:35 PM,42.8,37.4,81,29.70,2.5,West,9.2,-,N/A,,Unknown,280,2014-05-07 01:35:00
7:55 PM,42.8,39.2,87,29.70,5.0,West,4.6,-,N/A,Thunderstorm,Thunderstorm,280,2014-05-07 01:55:00
8:15 PM,41.0,39.2,93,29.69,10.0,NE,5.8,-,N/A,,Overcast,50,2014-05-07 02:15:00
8:35 PM,41.0,39.2,93,29.70,10.0,East,3.5,-,N/A,,Scattered Clouds,80,2014-05-07 02:35:00
9:15 PM,41.0,39.2,93,29.72,10.0,West,4.6,-,N/A,,Overcast,280,2014-05-07 03:15:00
9:55 PM,41.0,37.4,87,29.74,10.0,Calm,Calm,-,N/A,,Overcast,0,2014-05-07 03:55:00
10:15 PM,41.0,37.4,87,29.73,10.0,Calm,Calm,-,N/A,,Overcast,0,2014-05-07 04:15:00
10:35 PM,41.0,37.4,87,29.73,10.0,SSE,5.8,-,N/A,,Overcast,160,2014-05-07 04:35:00
10:55 PM,41.0,37.4,87,29.72,10.0,SE,4.6,-,N/A,,Scattered Clouds,130,2014-05-07 04:55:00
11:15 PM,37.4,35.6,93,29.72,10.0,Calm,Calm,-,N/A,,Mostly Cloudy,0,2014-05-07 05:15:00
11:35 PM,39.2,37.4,93,29.72,10.0,Calm,Calm,-,N/A,,Scattered Clouds,0,2014-05-07 05:35:00